SBIRS GEO-4 (USA 273)

Last updated on Sat Apr 13 2024 01:02:39 GMT+0100 (British Summer Time)

1 41937U 17004A 24103.57311110 -.00000153 00000+0 00000+0 0 9993 2 41937 1.4377 353.1754 0002212 17.0587 300.5228 1.00271534 26620
UTC large
Height (km)
Speed (km/s)
/
Latitude / Longitude
Inclination (degrees)
Orbital Period (minutes)
Azimuth
Elevation
Range (km)
Doppler Factor

Next 0 passes for location: London (51.5072 / 0.1276)

Sorry there are no passes over London.